| time (UTC) | temp F | wind direction | speed MPH | gust MPH | rain 1hr in | rain 24hr in | rain mn in | humidity % | barometer mb |
| 20260906051508 | 72 | 91 | 0.0 | 0.0 | 0.00 | 0.00 | 0.00 | 97 | 1013.1 |
| 20260906050508 | 71 | 91 | 0.0 | 0.0 | 0.00 | 0.00 | 0.00 | 97 | 1013.1 |
| 20260906045508 | 72 | 91 | 0.0 | 0.0 | 0.00 | 0.00 | 0.00 | 96 | 1013.2 |
| 20260906044509 | 72 | 91 | 0.0 | 0.0 | 0.00 | 0.00 | 0.00 | 96 | 1013.3 |
| 20260906043509 | 72 | 91 | 1.0 | 1.0 | 0.00 | 0.00 | 0.00 | 96 | 1013.3 |
| 20260906042511 | 72 | 91 | 0.0 | 0.0 | 0.00 | 0.00 | 0.00 | 96 | 1013.2 |
| 20260906041510 | 72 | 91 | 0.0 | 0.0 | 0.00 | 0.00 | 0.00 | 96 | 1013.2 |
| 20260906040510 | 72 | 91 | 0.0 | 0.0 | 0.00 | 0.00 | 0.00 | 96 | 1013.4 |
| 20260906035507 | 72 | 91 | 0.0 | 0.0 | 0.00 | 0.00 | 0.00 | 96 | 1013.1 |
| 20260906034510 | 72 | 91 | 0.0 | 0.0 | 0.00 | 0.00 | 0.00 | 96 | 1013.5 |
| 20260906033511 | 72 | 91 | 0.0 | 0.0 | 0.00 | 0.00 | 0.00 | 96 | 1013.6 |
| 20260906032512 | 72 | 91 | 0.0 | 0.0 | 0.00 | 0.00 | 0.00 | 95 | 1013.4 |
| 20260906031521 | 72 | 91 | 0.0 | 0.0 | 0.00 | 0.00 | 0.00 | 95 | 1013.5 |
| 20260906030508 | 73 | 91 | 0.0 | 0.0 | 0.00 | 0.00 | 0.00 | 96 | 1013.4 |
| 20260906025508 | 72 | 91 | 0.0 | 0.0 | 0.00 | 0.00 | 0.00 | 95 | 1013.5 |
| 20260906024510 | 73 | 91 | 0.0 | 0.0 | 0.00 | 0.00 | 0.00 | 95 | 1013.4 |
| 20260906023521 | 73 | 91 | 0.0 | 0.0 | 0.00 | 0.00 | 0.00 | 94 | 1013.3 |
| 20260906022511 | 73 | 91 | 0.0 | 0.0 | 0.00 | 0.00 | 0.00 | 93 | 1013.2 |
| 20260906021518 | 73 | 91 | 0.0 | 0.0 | 0.00 | 0.00 | 0.00 | 94 | 1013.1 |
| 20260906020511 | 73 | 91 | 0.0 | 0.0 | 0.00 | 0.00 | 0.00 | 93 | 1013.2 |
| 20260906020009 | 74 | 91 | 0.0 | 0.0 | 0.00 | 0.00 | 0.00 | 93 | 1013.4 |
| 20260906015009 | 73 | 91 | 0.0 | 0.0 | 0.00 | 0.00 | 0.00 | 94 | 1012.9 |
| 20260906013010 | 74 | 91 | 0.0 | 0.0 | 0.00 | 0.00 | 0.00 | 93 | 1012.8 |
| 20260906012011 | 74 | 91 | 0.0 | 0.0 | 0.00 | 0.00 | 0.00 | 92 | 1013.0 |
| 20260906011009 | 74 | 91 | 0.0 | 0.0 | 0.00 | 0.00 | 0.00 | 93 | 1012.7 |
| 20260906010008 | 75 | 91 | 0.0 | 0.0 | 0.00 | 0.00 | 0.00 | 91 | 1012.6 |
| 20260906005018 | 75 | 91 | 0.0 | 0.0 | 0.00 | 0.00 | 0.00 | 91 | 1012.8 |
| 20260906004023 | 76 | 91 | 0.0 | 0.0 | 0.00 | 0.00 | 0.00 | 89 | 1012.6 |
| 20260906003009 | 76 | 91 | 0.0 | 0.0 | 0.00 | 0.00 | 0.00 | 90 | 1012.5 |
| 20260906002010 | 76 | 91 | 1.0 | 1.0 | 0.00 | 0.00 | 0.00 | 88 | 1012.4 |
| 20260906001017 | 77 | 91 | 0.0 | 0.0 | 0.00 | 0.00 | 0.00 | 87 | 1012.3 |
| 20260906000020 | 78 | 91 | 0.0 | 0.0 | 0.00 | 0.00 | 0.00 | 85 | 1012.1 |
| 20260905234012 | 78 | 91 | 0.0 | 0.0 | 0.00 | 0.00 | 0.00 | 83 | 1011.8 |
| 20260905233010 | 79 | 91 | 0.0 | 0.0 | 0.00 | 0.00 | 0.00 | 81 | 1011.7 |
| 20260905232009 | 80 | 90 | 0.0 | 0.0 | 0.00 | 0.00 | 0.00 | 79 | 1011.9 |
| 20260905231012 | 80 | 90 | 0.0 | 0.0 | 0.00 | 0.00 | 0.00 | 77 | 1011.7 |
| 20260905225011 | 81 | 90 | 0.0 | 0.0 | 0.00 | 0.00 | 0.00 | 72 | 1012.1 |
| 20260905224021 | 81 | 90 | 0.0 | 0.0 | 0.00 | 0.00 | 0.00 | 73 | 1011.9 |
| 20260905223011 | 82 | 91 | 0.0 | 0.0 | 0.00 | 0.00 | 0.00 | 69 | 1011.8 |
| 20260905222010 | 82 | 91 | 1.0 | 1.0 | 0.00 | 0.00 | 0.00 | 69 | 1011.8 |
| 20260905221013 | 82 | 89 | 0.0 | 0.0 | 0.00 | 0.00 | 0.00 | 69 | 1011.8 |
| 20260905220012 | 82 | 81 | 0.0 | 0.0 | 0.00 | 0.00 | 0.00 | 63 | 1011.9 |
| 20260905215508 | 81 | 81 | 0.0 | 0.0 | 0.00 | 0.00 | 0.00 | 70 | 1011.9 |
| 20260905214513 | 82 | 80 | 0.0 | 1.0 | 0.00 | 0.00 | 0.00 | 67 | 1012.1 |
| 20260905213511 | 83 | 80 | 0.0 | 0.0 | 0.00 | 0.00 | 0.00 | 67 | 1012.2 |
| 20260905212522 | 83 | 79 | 0.0 | 0.0 | 0.00 | 0.00 | 0.00 | 61 | 1012.3 |
| 20260905211519 | 82 | 79 | 0.0 | 0.0 | 0.00 | 0.00 | 0.00 | 68 | 1012.2 |
| 20260905210513 | 82 | 59 | 0.0 | 0.0 | 0.00 | 0.00 | 0.00 | 62 | 1012.3 |
| 20260905205507 | 79 | 41 | 0.0 | 0.0 | 0.00 | 0.00 | 0.00 | 68 | 1012.4 |
| 20260905204521 | 79 | 64 | 0.0 | 0.0 | 0.00 | 0.00 | 0.00 | 68 | 1012.5 |
| 20260905203511 | 78 | 77 | 2.0 | 1.0 | 0.00 | 0.00 | 0.00 | 67 | 1012.7 |
| 20260905202509 | 79 | 130 | 1.0 | 1.0 | 0.00 | 0.00 | 0.00 | 68 | 1013.0 |
| 20260905201511 | 79 | 83 | 0.0 | 0.0 | 0.00 | 0.00 | 0.00 | 66 | 1012.9 |
| 20260905200522 | 80 | 65 | 1.0 | 1.0 | 0.00 | 0.00 | 0.00 | 65 | 1012.4 |
| 20260905200010 | 80 | 65 | 0.0 | 0.0 | 0.00 | 0.00 | 0.00 | 68 | 1012.9 |
| 20260905195012 | 81 | 42 | 1.0 | 1.0 | 0.00 | 0.00 | 0.00 | 63 | 1013.1 |
| 20260905194020 | 81 | 28 | 2.0 | 2.0 | 0.00 | 0.00 | 0.00 | 65 | 1013.4 |
| 20260905192521 | 84 | 10 | 1.0 | 1.0 | 0.00 | 0.00 | 0.00 | 64 | 1012.5 |
| 20260905191011 | 84 | 40 | 2.0 | 2.0 | 0.00 | 0.00 | 0.00 | 61 | 1012.3 |
| 20260905190014 | 86 | 27 | 1.0 | 2.0 | 0.00 | 0.00 | 0.00 | 62 | 1011.9 |
| 20260905185010 | 89 | 144 | 1.0 | 1.0 | 0.00 | 0.00 | 0.00 | 58 | 1011.6 |
| 20260905184010 | 90 | 143 | 2.0 | 3.0 | 0.00 | 0.00 | 0.00 | 53 | 1012.4 |
| 20260905183010 | 93 | 255 | 0.0 | 0.0 | 0.00 | 0.00 | 0.00 | 55 | 1012.4 |
| 20260905182008 | 96 | 200 | 0.0 | 0.0 | 0.00 | 0.00 | 0.00 | 53 | 1012.3 |
| 20260905180009 | 98 | 205 | 0.0 | 0.0 | 0.00 | 0.00 | 0.00 | 45 | 1012.6 |
| 20260905175011 | 97 | 171 | 1.0 | 1.0 | 0.00 | 0.00 | 0.00 | 45 | 1013.1 |
| 20260905174022 | 99 | 176 | 1.0 | 1.0 | 0.00 | 0.00 | 0.00 | 47 | 1013.2 |
| 20260905173010 | 97 | 77 | 0.0 | 0.0 | 0.00 | 0.00 | 0.00 | 50 | 1013.4 |
| 20260905172020 | 98 | 171 | 1.0 | 2.0 | 0.00 | 0.00 | 0.00 | 49 | 1013.5 |
| 20260905171023 | 98 | 148 | 1.0 | 1.0 | 0.00 | 0.00 | 0.00 | 47 | 1013.7 |
| 20260905170509 | 98 | 12 | 1.0 | 1.0 | 0.00 | 0.00 | 0.00 | 42 | 1013.7 |
| 20260905165512 | 98 | 173 | 1.0 | 1.0 | 0.00 | 0.00 | 0.00 | 48 | 1013.7 |
| 20260905164515 | 97 | 50 | 2.0 | 2.0 | 0.00 | 0.00 | 0.00 | 47 | 1014.0 |
| 20260905163512 | 96 | 56 | 1.0 | 1.0 | 0.00 | 0.00 | 0.00 | 49 | 1014.0 |
| 20260905162510 | 96 | 160 | 1.0 | 1.0 | 0.00 | 0.00 | 0.00 | 50 | 1014.3 |
| 20260905160510 | 96 | 112 | 0.0 | 0.0 | 0.00 | 0.00 | 0.00 | 51 | 1014.3 |
| 20260905155510 | 95 | 77 | 1.0 | 1.0 | 0.00 | 0.00 | 0.00 | 54 | 1014.6 |
| 20260905154520 | 95 | 104 | 1.0 | 1.0 | 0.00 | 0.00 | 0.00 | 56 | 1014.5 |
| 20260905153511 | 94 | 104 | 0.0 | 0.0 | 0.00 | 0.00 | 0.00 | 60 | 1014.5 |
| 20260905152519 | 90 | 338 | 2.0 | 2.0 | 0.00 | 0.00 | 0.00 | 64 | 1014.5 |
| 20260905151520 | 90 | 106 | 1.0 | 1.0 | 0.00 | 0.00 | 0.00 | 63 | 1014.4 |
| 20260905150522 | 88 | 124 | 0.0 | 0.0 | 0.00 | 0.00 | 0.00 | 68 | 1014.6 |
| 20260905145514 | 88 | 60 | 1.0 | 1.0 | 0.00 | 0.00 | 0.00 | 68 | 1014.8 |
| 20260905144510 | 87 | 233 | 0.0 | 0.0 | 0.00 | 0.00 | 0.00 | 72 | 1014.6 |
| 20260905143520 | 86 | 110 | 0.0 | 0.0 | 0.00 | 0.00 | 0.00 | 71 | 1014.6 |
| 20260905142511 | 85 | 42 | 0.0 | 0.0 | 0.00 | 0.00 | 0.00 | 73 | 1014.6 |
| 20260905141510 | 85 | 102 | 1.0 | 0.0 | 0.00 | 0.00 | 0.00 | 76 | 1014.7 |
| 20260905140511 | 84 | 66 | 1.0 | 1.0 | 0.00 | 0.00 | 0.00 | 78 | 1014.6 |
| 20260905140007 | 83 | 67 | 0.0 | 0.0 | 0.00 | 0.00 | 0.00 | 82 | 1014.6 |
| 20260905135013 | 83 | 65 | 1.0 | 1.0 | 0.00 | 0.00 | 0.00 | 82 | 1014.7 |
| 20260905134013 | 82 | 65 | 0.0 | 0.0 | 0.00 | 0.00 | 0.00 | 84 | 1014.7 |
| 20260905133015 | 81 | 65 | 0.0 | 0.0 | 0.00 | 0.00 | 0.00 | 87 | 1014.8 |
| 20260905132010 | 79 | 64 | 0.0 | 0.0 | 0.00 | 0.00 | 0.00 | 87 | 1014.6 |
| 20260905131011 | 78 | 63 | 0.0 | 0.0 | 0.00 | 0.00 | 0.00 | 91 | 1014.7 |
| 20260905130507 | 78 | 63 | 0.0 | 0.0 | 0.00 | 0.00 | 0.00 | 92 | 1014.8 |
| 20260905125512 | 77 | 77 | 0.0 | 0.0 | 0.00 | 0.00 | 0.00 | 92 | 1015.1 |
| 20260905124512 | 77 | 77 | 0.0 | 0.0 | 0.00 | 0.00 | 0.00 | 93 | 1014.9 |
| 20260905123513 | 76 | 77 | 0.0 | 0.0 | 0.00 | 0.00 | 0.00 | 94 | 1015.0 |
| 20260905123009 | 75 | 77 | 0.0 | 0.0 | 0.00 | 0.00 | 0.00 | 95 | 1015.0 |
| 20260905122009 | 75 | 77 | 0.0 | 0.0 | 0.00 | 0.00 | 0.00 | 95 | 1014.9 |
| 20260905121011 | 74 | 77 | 1.0 | 1.0 | 0.00 | 0.00 | 0.00 | 97 | 1015.0 |
| 20260905120008 | 74 | 77 | 0.0 | 0.0 | 0.00 | 0.00 | 0.00 | 97 | 1014.8 |
| 20260905115011 | 74 | 77 | 0.0 | 0.0 | 0.00 | 0.00 | 0.00 | 98 | 1014.8 |
| 20260905114010 | 74 | 77 | 0.0 | 0.0 | 0.00 | 0.00 | 0.00 | 98 | 1014.8 |
| 20260905113011 | 74 | 77 | 0.0 | 0.0 | 0.00 | 0.00 | 0.00 | 98 | 1014.5 |
| 20260905112010 | 73 | 77 | 0.0 | 0.0 | 0.00 | 0.00 | 0.00 | 99 | 1014.1 |
| 20260905111014 | 73 | 77 | 0.0 | 0.0 | 0.00 | 0.00 | 0.00 | 98 | 1014.0 |
| 20260905110008 | 73 | 77 | 0.0 | 0.0 | 0.00 | 0.00 | 0.00 | 98 | 1014.1 |
| 20260905105013 | 73 | 77 | 0.0 | 0.0 | 0.00 | 0.00 | 0.00 | 98 | 1013.9 |
| 20260905104021 | 73 | 77 | 0.0 | 0.0 | 0.00 | 0.00 | 0.00 | 98 | 1013.7 |
| 20260905103011 | 73 | 77 | 0.0 | 0.0 | 0.00 | 0.00 | 0.00 | 99 | 1013.5 |
| 20260905102019 | 73 | 77 | 0.0 | 0.0 | 0.00 | 0.00 | 0.00 | 99 | 1013.5 |
| 20260905101011 | 73 | 77 | 0.0 | 0.0 | 0.00 | 0.00 | 0.00 | 99 | 1013.6 |
| 20260905100008 | 73 | 77 | 0.0 | 0.0 | 0.00 | 0.00 | 0.00 | 99 | 1013.6 |
| 20260905095011 | 73 | 77 | 0.0 | 0.0 | 0.00 | 0.00 | 0.00 | 98 | 1013.5 |
| 20260905094021 | 73 | 77 | 0.0 | 0.0 | 0.00 | 0.00 | 0.00 | 98 | 1013.5 |
| 20260905093011 | 73 | 77 | 0.0 | 0.0 | 0.00 | 0.00 | 0.00 | 98 | 1013.8 |
| 20260905092007 | 74 | 77 | 0.0 | 0.0 | 0.00 | 0.00 | 0.00 | 98 | 1013.4 |
| 20260905091014 | 74 | 77 | 0.0 | 0.0 | 0.00 | 0.00 | 0.00 | 98 | 1013.7 |
| 20260905090019 | 74 | 77 | 0.0 | 0.0 | 0.00 | 0.00 | 0.00 | 98 | 1013.6 |
| 20260905085011 | 74 | 77 | 0.0 | 0.0 | 0.00 | 0.00 | 0.00 | 98 | 1013.6 |
| 20260905084011 | 74 | 77 | 0.0 | 0.0 | 0.00 | 0.00 | 0.00 | 97 | 1013.8 |
| 20260905083019 | 74 | 77 | 0.0 | 0.0 | 0.00 | 0.00 | 0.00 | 97 | 1013.7 |
| 20260905082023 | 74 | 77 | 0.0 | 0.0 | 0.00 | 0.00 | 0.00 | 96 | 1013.7 |
| 20260905081013 | 74 | 77 | 0.0 | 0.0 | 0.00 | 0.00 | 0.00 | 97 | 1013.8 |
| 20260905080013 | 74 | 77 | 0.0 | 0.0 | 0.00 | 0.00 | 0.00 | 97 | 1013.9 |
| 20260905075008 | 74 | 77 | 0.0 | 0.0 | 0.00 | 0.00 | 0.00 | 97 | 1014.2 |
| 20260905074010 | 75 | 77 | 0.0 | 0.0 | 0.00 | 0.00 | 0.00 | 96 | 1014.0 |
| 20260905073008 | 75 | 77 | 0.0 | 0.0 | 0.00 | 0.00 | 0.00 | 96 | 1014.2 |
| 20260905072008 | 75 | 77 | 0.0 | 0.0 | 0.00 | 0.00 | 0.00 | 96 | 1014.0 |
| 20260905071012 | 75 | 77 | 0.0 | 0.0 | 0.00 | 0.00 | 0.00 | 96 | 1014.3 |
| 20260905070009 | 75 | 77 | 0.0 | 0.0 | 0.00 | 0.00 | 0.00 | 97 | 1014.3 |
| 20260905065012 | 75 | 77 | 0.0 | 0.0 | 0.00 | 0.00 | 0.00 | 96 | 1014.6 |
| 20260905064011 | 75 | 77 | 0.0 | 0.0 | 0.00 | 0.00 | 0.00 | 96 | 1014.5 |
| 20260905063008 | 76 | 77 | 0.0 | 0.0 | 0.00 | 0.00 | 0.00 | 96 | 1014.8 |
| 20260905062009 | 76 | 77 | 0.0 | 0.0 | 0.00 | 0.00 | 0.00 | 95 | 1015.0 |
| 20260905061011 | 76 | 77 | 0.0 | 0.0 | 0.00 | 0.00 | 0.00 | 94 | 1015.0 |
| 20260905060022 | 76 | 77 | 0.0 | 0.0 | 0.00 | 0.00 | 0.00 | 94 | 1015.2 |
| 20260905055010 | 76 | 77 | 0.0 | 0.0 | 0.00 | 0.00 | 0.00 | 95 | 1015.4 |
| 20260905054507 | 76 | 77 | 0.0 | 0.0 | 0.00 | 0.00 | 0.00 | 95 | 1015.5 |
| 20260905053521 | 76 | 77 | 0.0 | 0.0 | 0.00 | 0.00 | 0.00 | 93 | 1015.4 |
| 20260905052511 | 76 | 77 | 0.0 | 0.0 | 0.00 | 0.00 | 0.00 | 93 | 1015.6 |